Liberia, Costa Rica

5:47 PM CST on July 22, 2017 (GMT -0600)
Daniel Oduber Quiros International

Weather History for MRLB - March, 2012

Change the Weather History Date:

Tuesday, March 13, 2012

  Actual Average Record
Temperature  
Mean Temperature 84 °F -  
Max Temperature 92 °F 92 °F 97 °F (2016)
Min Temperature 75 °F 75 °F 37 °F (1999)
Cooling Degree Days 18    
Growing Degree Days 34 (Base 50)    
Moisture  
Dew Point 64 °F    
Average Humidity 47    
Maximum Humidity 65    
Minimum Humidity 30    
Precipitation  
Precipitation 0.00 in - - ()
Sea Level Pressure  
Sea Level Pressure 29.77 in    
Wind  
Wind Speed 18 mph ()    
Max Wind Speed 30 mph    
Max Gust Speed -    
Visibility 8.6 miles    
Events      
Averages and records for this station are not official NWS values.
T = Trace of Precipitation, MM = Missing Value Source: Averaged Metar Reports

Daily Weather History Graph

Daily Weather History Graph

Search for Another Location

Airport or City:

Trip Planner

Search our weather history database for the weather conditions in past years. The results will help you decide how hot, cold, wet, or windy it might be!

Date:

Astronomy

Mar. 13, 2012 Rise Set
Actual Time 5:50 AM CST 5:52 PM CST
Civil Twilight 5:29 AM CST 6:13 PM CST
Nautical Twilight 5:04 AM CST 6:38 PM CST
Astronomical Twilight 4:40 AM CST 7:02 PM CST
Moon 11:18 PM CST (3/13) 10:11 AM CST (3/13)
Length of Visible Light 12h 44m
Length of Day
12h 02m
Waning Gibbous, 65% of the Moon is Illuminated
Mar 13
Waning Gibbous
Mar 14
Last Quarter
Mar 22
New
Mar 30
First Quarter
Apr 6
Full

Hourly Weather History & Observations

Time (CST) Temp. Heat Index Dew Point Humidity Pressure Visibility Wind Dir Wind Speed Gust Speed Precip Events Conditions
6:00 AM 76 °F - 64 °F 59% 29.73 in 12 mi NNE 6.9 mph - -  
6:00 AM 77.0 °F - 64.4 °F 65% 29.77 in - NNE 6.9 mph - N/A   Clear
7:00 AM 80.6 °F 82.3 °F 64.4 °F 58% 29.78 in - East 18.4 mph - N/A   Clear
8:00 AM 84.2 °F 85.6 °F 64.4 °F 51% 29.81 in - NE 13.8 mph - N/A   Clear
9:00 AM 86 °F - 63 °F 36% 29.78 in 12 mi ENE 24.2 mph - -  
9:00 AM 86.0 °F 86.6 °F 62.6 °F 45% 29.81 in - ENE 24.2 mph - N/A   Clear
10:00 AM 87.8 °F 89.4 °F 64.4 °F 46% 29.82 in 6.2 mi East 23.0 mph - N/A   Partly Cloudy
11:00 AM 87.8 °F 89.4 °F 64.4 °F 46% 29.82 in 6.2 mi East 27.6 mph - N/A   Partly Cloudy
12:00 PM 90 °F - 63 °F 30% 29.80 in 12 mi ENE 26.5 mph - -  
12:00 PM 89.6 °F 90.1 °F 62.6 °F 40% 29.80 in 6.2 mi ENE 26.5 mph - N/A   Partly Cloudy
1:00 PM 91.4 °F 93.2 °F 64.4 °F 41% 29.79 in 6.2 mi ENE 24.2 mph - N/A   Partly Cloudy
2:00 PM 91.4 °F 92.1 °F 62.6 °F 38% 29.75 in 6.2 mi ENE 29.9 mph - N/A   Partly Cloudy
3:00 PM 87 °F - 64 °F 36% 29.73 in 12 mi East 29.9 mph - -  
3:00 PM 87.8 °F 89.4 °F 64.4 °F 46% 29.74 in 6.2 mi East 29.9 mph - N/A   Partly Cloudy
4:00 PM 87.8 °F 89.4 °F 64.4 °F 46% 29.73 in 6.2 mi ENE 27.6 mph - N/A   Partly Cloudy
5:00 PM 86.0 °F 86.1 °F 60.8 °F 43% 29.72 in - ENE 29.9 mph - N/A   Clear
6:00 PM 82 °F - 64 °F 46% 29.70 in 12 mi ENE 25.3 mph - -  
6:00 PM 82.4 °F 83.9 °F 64.4 °F 54% 29.79 in - ENE 25.3 mph - N/A   Clear
7:00 PM 80.6 °F 82.3 °F 64.4 °F 58% 29.74 in - ENE 28.8 mph - N/A   Clear
8:00 PM 80.6 °F 82.3 °F 64.4 °F 58% 29.74 in - ENE 27.6 mph - N/A   Clear